START_TIME,STEP,MOV.,M29,t_acc.,H22,t_acc.,H26,t_acc.,H30,t_acc.
1979-03-03 09:00:21.390 ,2,1,0.,24.0,0.,24.0,0.,24.0,0.,24.0
1979-03-03 09:00:45.390 ,1,1,0.,24.0,0.,24.0,0.,24.0,0.,24.0
1979-03-03 09:01:09.390 ,0,1,0.,24.0,0.,24.0,0.,24.0,0.,24.0
1979-03-03 09:01:33.390 ,0,1,0.,24.0,0.,24.0,0.,24.0,0.,24.0
1979-03-03 09:01:57.390 ,1,1,0.,24.0,0.,24.0,0.,24.0,0.,24.0
1979-03-03 09:02:21.390 ,2,1,0.,24.0,0.,24.0,0.,24.0,0.,24.0
1979-03-03 09:02:45.390 ,3,1,0.,24.0,0.,24.0,0.,24.0,0.,24.0
1979-03-03 09:03:09.390 ,4,1,0.,24.0,0.,24.0,0.,24.0,0.,24.0
1979-03-03 09:03:33.390 ,5,1,0.,24.0,0.,24.0,0.,24.0,0.,24.0
1979-03-03 09:03:57.390 ,6,1,0.,24.0,0.,24.0,0.,24.0,0.,24.0
1979-03-03 09:04:21.390 ,7,1,0.,24.0,0.,24.0,0.,24.0,0.,24.0
1979-03-03 09:04:45.390 ,7,1,0.,24.0,0.,24.0,0.,24.0,0.,24.0
1979-03-03 09:05:09.390 ,6,1,0.,24.0,0.,24.0,0.,24.0,0.,24.0
1979-03-03 09:05:33.390 ,5,1,0.,24.0,0.,24.0,0.,24.0,0.,24.0
1979-03-03 09:05:57.390 ,4,1,0.,24.0,0.,24.0,0.,24.0,0.,24.0
1979-03-03 09:06:21.390 ,3,1,0.,24.0,0.,24.0,0.,24.0,0.,24.0
1979-03-03 09:06:45.390 ,2,1,0.,24.0,0.,24.0,0.,24.0,0.,24.0
1979-03-03 09:07:09.390 ,1,1,0.,24.0,0.,24.0,0.,24.0,0.,24.0
1979-03-03 09:07:33.390 ,0,1,0.,24.0,0.,24.0,0.,24.0,0.,24.0
1979-03-03 09:07:57.390 ,0,1,0.,24.0,0.,24.0,0.,24.0,0.,24.0
1979-03-03 09:08:21.390 ,1,1,0.,24.0,0.,24.0,0.,24.0,0.,24.0
1979-03-03 09:08:45.390 ,2,1,0.,24.0,0.,24.0,0.,24.0,0.,24.0
1979-03-03 09:09:09.390 ,3,1,0.,24.0,0.,24.0,0.,24.0,0.,24.0
1979-03-03 09:09:33.390 ,4,1,0.,24.0,0.,24.0,0.,24.0,0.,24.0
1979-03-03 09:09:57.390 ,5,1,0.,24.0,0.,24.0,0.,24.0,0.,24.0
1979-03-03 09:10:21.390 ,6,1,0.,24.0,0.,24.0,0.,24.0,0.,24.0
1979-03-03 09:10:45.390 ,7,1,0.,24.0,0.,24.0,0.,24.0,0.,24.0
1979-03-03 09:11:09.390 ,7,1,0.,24.0,0.,24.0,0.,24.0,0.,24.0
1979-03-03 09:11:33.390 ,6,1,0.,24.0,0.,24.0,0.,24.0,0.,24.0
1979-03-03 09:11:57.390 ,5,1,0.,24.0,0.,24.0,0.,24.0,0.,24.0
1979-03-03 09:12:21.390 ,4,1,0.,24.0,0.,24.0,0.,24.0,0.,24.0
1979-03-03 09:12:45.390 ,3,1,0.,24.0,0.,24.0,0.,24.0,0.,24.0
1979-03-03 09:13:09.390 ,2,1,0.,24.0,0.,24.0,0.,24.0,0.,24.0
1979-03-03 09:13:33.390 ,1,1,0.,24.0,0.,24.0,0.,24.0,0.,24.0
1979-03-03 09:13:57.390 ,0,1,0.,24.0,0.,24.0,0.,24.0,0.,24.0
1979-03-03 09:14:21.390 ,0,1,0.,24.0,0.,24.0,0.,24.0,0.,24.0
1979-03-03 09:14:45.390 ,1,1,0.,24.0,0.,24.0,0.,24.0,0.,24.0
1979-03-03 09:15:09.390 ,0,0,0.,24.0,0.,24.0,0.,24.0,0.,24.0
1979-03-03 09:15:33.390 ,0,0,0.,24.0,0.,24.0,0.,24.0,0.,24.0
1979-03-03 09:15:57.390 ,4,1,0.,24.0,0.,24.0,0.,24.0,0.,24.0
1979-03-03 09:16:21.390 ,5,1,0.,24.0,0.,24.0,0.,24.0,0.,24.0
1979-03-03 09:16:45.390 ,6,1,0.,24.0,0.,24.0,0.,24.0,0.,24.0
1979-03-03 09:17:09.390 ,7,1,0.,24.0,0.,24.0,0.,24.0,0.,24.0
1979-03-03 09:17:33.390 ,7,1,0.,24.0,0.,24.0,0.,24.0,0.,24.0
1979-03-03 09:17:57.390 ,6,1,0.,24.0,0.,24.0,0.,24.0,0.,24.0
1979-03-03 09:18:21.390 ,5,1,0.,24.0,0.,24.0,0.,24.0,0.,24.0
1979-03-03 09:18:45.390 ,4,1,0.,24.0,0.,24.0,0.,24.0,0.,24.0
1979-03-03 09:19:09.390 ,3,1,0.,24.0,0.,24.0,0.,24.0,0.,24.0
1979-03-03 09:19:33.390 ,2,1,0.,24.0,0.,24.0,0.,24.0,0.,24.0
1979-03-03 09:19:57.390 ,1,1,0.,24.0,0.,24.0,0.,24.0,0.,24.0
1979-03-03 09:20:21.390 ,0,1,0.,24.0,0.,24.0,0.,24.0,0.,24.0
1979-03-03 09:20:45.390 ,0,1,0.,24.0,0.,24.0,0.,24.0,0.,24.0
1979-03-03 09:21:09.390 ,1,1,0.,24.0,0.,24.0,0.,24.0,0.,24.0
1979-03-03 09:21:33.390 ,2,1,0.,24.0,0.,24.0,0.,24.0,0.,24.0
1979-03-03 09:21:57.390 ,3,1,0.,24.0,0.,24.0,0.,24.0,0.,24.0
1979-03-03 09:22:21.390 ,4,1,0.,24.0,0.,24.0,0.,24.0,0.,24.0
1979-03-03 09:22:45.390 ,5,1,0.,24.0,0.,24.0,0.,24.0,0.,24.0
1979-03-03 09:23:09.390 ,6,1,0.,24.0,0.,24.0,0.,24.0,0.,24.0
1979-03-03 09:23:33.390 ,7,1,0.,24.0,0.,24.0,0.,24.0,0.,24.0
1979-03-03 09:23:57.390 ,7,1,0.,24.0,0.,24.0,0.,24.0,0.,24.0
1979-03-03 09:24:21.390 ,6,1,0.,24.0,0.,24.0,0.,24.0,0.,24.0
1979-03-03 09:24:45.390 ,5,1,0.,24.0,0.,24.0,0.,24.0,0.,24.0
1979-03-03 09:25:09.390 ,4,1,0.,24.0,0.,24.0,0.,24.0,0.,24.0
1979-03-03 09:25:33.390 ,3,1,0.,24.0,0.,24.0,0.,24.0,0.,24.0
1979-03-03 09:25:57.390 ,2,1,0.,24.0,0.,24.0,0.,24.0,0.,24.0
1979-03-03 09:26:21.390 ,1,1,0.,24.0,0.,24.0,0.,24.0,0.,24.0
1979-03-03 09:26:45.390 ,0,1,0.,24.0,0.,24.0,0.,24.0,0.,24.0
1979-03-03 09:27:09.390 ,0,1,0.,24.0,0.,24.0,0.,24.0,0.,24.0
1979-03-03 09:27:33.390 ,1,1,0.,24.0,0.,24.0,0.,24.0,0.,24.0
1979-03-03 09:27:57.390 ,2,1,0.,24.0,0.,24.0,0.,24.0,0.,24.0
1979-03-03 09:28:21.390 ,3,1,0.,24.0,0.,24.0,0.,24.0,0.,24.0
1979-03-03 09:28:45.390 ,4,1,0.,24.0,0.,24.0,0.,24.0,0.,24.0
1979-03-03 09:29:09.390 ,5,1,0.,24.0,0.,24.0,0.,24.0,0.,24.0
1979-03-03 09:29:33.390 ,6,1,0.,24.0,0.,24.0,0.,24.0,0.,24.0
1979-03-03 09:29:57.390 ,7,1,0.,24.0,0.,24.0,0.,24.0,0.,24.0
1979-03-03 09:30:21.390 ,7,1,0.,24.0,0.,24.0,0.,24.0,0.,24.0
1979-03-03 09:30:45.390 ,6,1,0.,24.0,0.,24.0,0.,24.0,0.,24.0
1979-03-03 09:31:09.390 ,5,1,0.,24.0,0.,24.0,0.,24.0,0.,24.0
1979-03-03 09:31:33.390 ,4,1,0.,24.0,0.,24.0,0.,24.0,0.,24.0
1979-03-03 09:31:57.390 ,3,1,0.,24.0,0.,24.0,0.,24.0,0.,24.0
1979-03-03 09:32:21.390 ,2,1,0.,24.0,0.,24.0,0.,24.0,0.,24.0
1979-03-03 09:32:45.390 ,1,1,0.,24.0,0.,24.0,0.,24.0,0.,24.0
1979-03-03 09:33:09.390 ,0,1,0.,24.0,0.,24.0,0.,24.0,0.,24.0
1979-03-03 09:33:33.390 ,0,1,0.,24.0,0.,24.0,0.,24.0,0.,24.0
1979-03-03 09:33:57.390 ,1,1,0.,24.0,0.,24.0,0.,24.0,0.,24.0
1979-03-03 09:34:21.390 ,2,1,0.,24.0,0.,24.0,0.,24.0,0.,24.0
1979-03-03 09:34:45.390 ,3,1,0.,24.0,0.,24.0,0.,24.0,0.,24.0
1979-03-03 09:35:09.390 ,4,1,0.,24.0,0.,24.0,0.,24.0,0.,24.0
1979-03-03 09:35:33.390 ,5,1,0.,24.0,0.,24.0,0.,24.0,0.,24.0
1979-03-03 09:35:57.390 ,6,1,0.,24.0,0.,24.0,0.,24.0,0.,24.0
1979-03-03 09:36:21.390 ,7,1,0.,24.0,0.,24.0,0.,24.0,0.,24.0
1979-03-03 09:36:45.390 ,7,1,0.,24.0,0.,24.0,0.,24.0,0.,24.0
1979-03-03 09:37:09.390 ,6,1,0.,24.0,0.,24.0,0.,24.0,0.,24.0
1979-03-03 09:37:33.390 ,5,1,0.,24.0,0.,24.0,0.,24.0,0.,24.0
1979-03-03 09:37:57.390 ,4,1,0.,24.0,0.,24.0,0.,24.0,0.,24.0
1979-03-03 09:38:21.390 ,3,1,0.,24.0,0.,24.0,0.,24.0,0.,24.0
1979-03-03 09:38:45.390 ,2,1,0.,24.0,0.,24.0,0.,24.0,0.,24.0
1979-03-03 09:39:09.390 ,1,1,0.,24.0,0.,24.0,0.,24.0,0.,24.0
1979-03-03 09:39:33.390 ,0,1,0.,24.0,0.,24.0,0.,24.0,0.,24.0
1979-03-03 09:39:57.390 ,0,1,0.,24.0,0.,24.0,0.,24.0,0.,24.0
1979-03-03 09:40:21.390 ,1,1,0.,24.0,0.,24.0,0.,24.0,0.,24.0
1979-03-03 09:40:45.390 ,2,1,0.,24.0,0.,24.0,0.,24.0,0.,24.0
1979-03-03 09:41:09.390 ,3,1,0.,24.0,0.,24.0,0.,24.0,0.,24.0
1979-03-03 09:42:21.390 ,0,0,0.,24.0,0.,24.0,0.,24.0,0.,24.0
1979-03-03 09:42:45.390 ,7,1,0.,24.0,0.,24.0,0.,24.0,0.,24.0
1979-03-03 09:43:09.390 ,7,1,0.,24.0,0.,24.0,0.,24.0,0.,24.0
1979-03-03 09:43:33.390 ,6,1,0.,24.0,0.,24.0,0.,24.0,0.,24.0
1979-03-03 09:43:57.390 ,5,1,0.,24.0,0.,24.0,0.,24.0,0.,24.0
1979-03-03 09:44:21.390 ,4,1,0.,24.0,0.,24.0,0.,24.0,0.,24.0
1979-03-03 09:44:45.390 ,3,1,0.,24.0,0.,24.0,0.,24.0,0.,24.0
1979-03-03 09:45:09.390 ,2,1,0.,24.0,0.,24.0,0.,24.0,0.,24.0
1979-03-03 09:45:33.390 ,1,1,0.,24.0,0.,24.0,0.,24.0,0.,24.0
1979-03-03 09:45:57.390 ,0,1,0.,24.0,0.,24.0,0.,24.0,0.,24.0
1979-03-03 09:46:21.390 ,0,1,0.,24.0,0.,24.0,0.,24.0,0.,24.0
1979-03-03 09:46:45.390 ,1,1,0.,24.0,0.,24.0,0.,24.0,0.,24.0
1979-03-03 09:47:09.390 ,2,1,0.,24.0,0.,24.0,0.,24.0,0.,24.0
1979-03-03 09:47:33.390 ,3,1,0.,24.0,0.,24.0,0.,24.0,0.,24.0
1979-03-03 09:47:57.390 ,4,1,0.,24.0,0.,24.0,0.,24.0,0.,24.0
1979-03-03 09:48:21.390 ,5,1,0.,24.0,0.,24.0,0.,24.0,0.,24.0
1979-03-03 09:48:45.390 ,6,1,0.,24.0,0.,24.0,0.,24.0,0.,24.0
1979-03-03 09:49:09.390 ,7,1,0.,24.0,0.,24.0,0.,24.0,0.,24.0
1979-03-03 09:49:33.390 ,7,1,0.,24.0,0.,24.0,0.,24.0,0.,24.0
1979-03-03 09:49:57.390 ,6,1,0.,24.0,0.,24.0,0.,24.0,0.,24.0
1979-03-03 09:50:21.390 ,5,1,0.,24.0,0.,24.0,0.,24.0,0.,24.0
1979-03-03 09:50:45.390 ,4,1,0.,24.0,0.,24.0,0.,24.0,0.,24.0
1979-03-03 09:51:09.390 ,3,1,0.,24.0,0.,24.0,0.,24.0,0.,24.0
1979-03-03 09:51:33.390 ,2,1,0.,24.0,0.,24.0,0.,24.0,0.,24.0
1979-03-03 09:51:57.390 ,1,1,0.,24.0,0.,24.0,0.,24.0,0.,24.0
1979-03-03 09:52:21.390 ,0,1,0.,24.0,0.,24.0,0.,24.0,0.,24.0
1979-03-03 09:52:45.390 ,0,1,0.,24.0,0.,24.0,0.,24.0,0.,24.0
1979-03-03 09:53:09.390 ,1,1,0.,24.0,0.,24.0,0.,24.0,0.,24.0
1979-03-03 09:53:33.390 ,2,1,0.,24.0,0.,24.0,0.,24.0,0.,24.0
1979-03-03 09:53:57.390 ,3,1,0.,24.0,0.,24.0,0.,24.0,0.,24.0
1979-03-03 09:54:21.390 ,4,1,0.,24.0,0.,24.0,0.,24.0,0.,24.0
1979-03-03 09:54:45.390 ,5,1,0.,24.0,0.,24.0,0.,24.0,0.,24.0
1979-03-03 09:55:09.390 ,6,1,0.,24.0,0.,24.0,0.,24.0,0.,24.0
1979-03-03 09:55:33.390 ,7,1,0.,24.0,0.,24.0,0.,24.0,0.,24.0
1979-03-03 09:55:57.390 ,7,1,0.,24.0,0.,24.0,0.,24.0,0.,24.0
1979-03-03 09:56:21.390 ,6,1,0.,24.0,0.,24.0,0.,24.0,0.,24.0
1979-03-03 09:56:45.390 ,5,1,0.,24.0,0.,24.0,0.,24.0,0.,24.0
1979-03-03 09:57:09.390 ,4,1,0.,24.0,0.,24.0,0.,24.0,0.,24.0
1979-03-03 09:57:33.390 ,3,1,0.,24.0,0.,24.0,0.,24.0,0.,24.0
1979-03-03 09:57:57.390 ,2,1,0.,24.0,0.,24.0,0.,24.0,0.,24.0
1979-03-03 09:58:21.390 ,1,1,0.,24.0,0.,24.0,0.,24.0,0.,24.0
1979-03-03 09:58:45.390 ,0,1,0.,24.0,0.,24.0,0.,24.0,0.,24.0
1979-03-03 09:59:09.390 ,0,1,0.,24.0,0.,24.0,0.,24.0,0.,24.0
1979-03-03 09:59:33.390 ,1,1,0.,24.0,0.,24.0,0.,24.0,0.,24.0
1979-03-03 09:59:57.390 ,2,1,0.,24.0,0.,24.0,0.,24.0,0.,24.0
1979-03-03 10:00:21.390 ,3,1,0.,24.0,0.,24.0,0.,24.0,0.,24.0
1979-03-03 10:00:45.390 ,4,1,0.,24.0,0.,24.0,0.,24.0,0.,24.0
1979-03-03 10:01:09.390 ,5,1,0.,24.0,0.,24.0,0.,24.0,0.,24.0
1979-03-03 10:01:33.390 ,6,1,0.,24.0,0.,24.0,0.,24.0,0.,24.0
1979-03-03 10:01:57.390 ,7,1,0.,24.0,0.,24.0,0.,24.0,0.,24.0
1979-03-03 10:02:21.390 ,7,1,0.,24.0,0.,24.0,0.,24.0,0.,24.0
1979-03-03 10:02:45.390 ,6,1,0.,24.0,0.,24.0,0.,24.0,0.,24.0
1979-03-03 10:03:09.390 ,5,1,0.,24.0,0.,24.0,0.,24.0,0.,24.0
1979-03-03 10:03:33.390 ,4,1,0.,24.0,0.,24.0,0.,24.0,0.,24.0
1979-03-03 10:03:57.390 ,3,1,0.,24.0,0.,24.0,0.,24.0,0.,24.0
1979-03-03 10:04:21.390 ,2,1,0.,24.0,0.,24.0,0.,24.0,0.,24.0
1979-03-03 10:04:45.390 ,1,1,0.,24.0,0.,24.0,0.,24.0,0.,24.0
1979-03-03 10:05:09.390 ,0,1,0.,24.0,0.,24.0,0.,24.0,0.,24.0
1979-03-03 10:05:33.390 ,0,1,0.,24.0,0.,24.0,0.,24.0,0.,24.0
1979-03-03 10:05:57.390 ,1,1,0.,24.0,0.,24.0,0.,24.0,0.,24.0
1979-03-03 10:06:21.390 ,2,1,0.,24.0,0.,24.0,0.,24.0,0.,24.0
1979-03-03 10:06:45.390 ,3,1,0.,24.0,0.,24.0,0.,24.0,0.,24.0
1979-03-03 10:07:09.390 ,4,1,0.,24.0,0.,24.0,0.,24.0,0.,24.0
1979-03-03 10:07:33.390 ,5,1,0.,24.0,0.,24.0,0.,24.0,0.,24.0
1979-03-03 10:07:57.390 ,6,1,0.,24.0,0.,24.0,0.,24.0,0.,24.0
1979-03-03 10:08:21.390 ,7,1,0.,24.0,0.,24.0,0.,24.0,0.,24.0
1979-03-03 10:08:45.390 ,7,1,0.,24.0,0.,24.0,0.,24.0,0.,24.0
1979-03-03 10:09:09.390 ,6,1,0.,24.0,0.,24.0,0.,24.0,0.,24.0
1979-03-03 10:09:33.390 ,5,1,0.,24.0,0.,24.0,0.,24.0,0.,24.0
1979-03-03 10:09:57.390 ,4,1,0.,24.0,0.,24.0,0.,24.0,0.,24.0
1979-03-03 10:10:21.390 ,3,1,0.,24.0,0.,24.0,0.,24.0,0.,24.0
1979-03-03 10:10:45.390 ,2,1,0.,24.0,0.,24.0,0.,24.0,0.,24.0
1979-03-03 10:11:09.390 ,1,1,0.,24.0,0.,24.0,0.,24.0,0.,24.0
1979-03-03 10:11:33.390 ,0,1,0.,24.0,0.,24.0,0.,24.0,0.,24.0
1979-03-03 10:11:57.390 ,0,1,0.,24.0,0.,24.0,0.,24.0,0.,24.0
1979-03-03 10:12:21.390 ,1,1,0.,24.0,0.,24.0,0.,24.0,0.,24.0
1979-03-03 10:12:45.390 ,2,1,0.,24.0,0.,24.0,0.,24.0,0.,24.0
1979-03-03 10:13:09.390 ,3,1,0.,24.0,0.,24.0,0.,24.0,0.,24.0
1979-03-03 10:13:33.390 ,4,1,0.,24.0,0.,24.0,0.,24.0,0.,24.0
1979-03-03 10:13:57.390 ,5,1,0.,24.0,0.,24.0,0.,24.0,0.,24.0
1979-03-03 10:14:21.390 ,6,1,0.,24.0,0.,24.0,0.,24.0,0.,24.0
1979-03-03 10:14:45.390 ,7,1,0.,24.0,0.,24.0,0.,24.0,0.,24.0
1979-03-03 10:15:09.390 ,7,1,0.,24.0,0.,24.0,0.,24.0,0.,24.0
1979-03-03 10:15:33.390 ,6,1,0.,24.0,0.,24.0,0.,24.0,0.,24.0
1979-03-03 10:15:57.390 ,5,1,0.,24.0,0.,24.0,0.,24.0,0.,24.0
1979-03-03 10:16:21.390 ,4,1,0.,24.0,0.,24.0,0.,24.0,0.,24.0
1979-03-03 10:16:45.390 ,3,1,0.,24.0,0.,24.0,0.,24.0,0.,24.0
1979-03-03 10:17:09.390 ,2,1,0.,24.0,0.,24.0,0.,24.0,0.,24.0
1979-03-03 10:17:33.390 ,1,1,0.,24.0,0.,24.0,0.,24.0,0.,24.0
1979-03-03 10:17:57.390 ,0,1,0.,24.0,0.,24.0,0.,24.0,0.,24.0
1979-03-03 10:18:21.390 ,0,1,0.,24.0,0.,24.0,0.,24.0,0.,24.0
1979-03-03 10:18:45.390 ,1,1,0.,24.0,0.,24.0,0.,24.0,0.,24.0
1979-03-03 10:19:09.390 ,2,1,0.,24.0,0.,24.0,0.,24.0,0.,24.0
1979-03-03 10:19:33.390 ,3,1,0.,24.0,0.,24.0,0.,24.0,0.,24.0
1979-03-03 10:19:57.390 ,4,1,0.,24.0,0.,24.0,0.,24.0,0.,24.0
1979-03-03 10:20:21.390 ,5,1,0.,24.0,0.,24.0,0.,24.0,0.,24.0
1979-03-03 10:20:45.390 ,6,1,0.,24.0,0.,24.0,0.,24.0,0.,24.0
1979-03-03 10:21:09.390 ,7,1,0.,24.0,0.,24.0,0.,24.0,0.,24.0
1979-03-03 10:21:33.390 ,7,1,0.,24.0,0.,24.0,0.,24.0,0.,24.0
1979-03-03 10:21:57.390 ,6,1,0.,24.0,0.,24.0,0.,24.0,0.,24.0
1979-03-03 10:22:21.390 ,5,1,0.,24.0,0.,24.0,0.,24.0,0.,24.0
1979-03-03 10:22:45.390 ,4,1,0.,24.0,0.,24.0,0.,24.0,0.,24.0
1979-03-03 10:23:09.390 ,3,1,0.,24.0,0.,24.0,0.,24.0,0.,24.0
1979-03-03 10:23:33.390 ,2,1,0.,24.0,0.,24.0,0.,24.0,0.,24.0
1979-03-03 10:23:57.390 ,1,1,0.,24.0,0.,24.0,0.,24.0,0.,24.0
1979-03-03 10:24:21.390 ,0,1,0.,24.0,0.,24.0,0.,24.0,0.,24.0
1979-03-03 10:24:45.390 ,0,1,0.,24.0,0.,24.0,0.,24.0,0.,24.0
1979-03-03 10:25:09.390 ,1,1,0.,24.0,0.,24.0,0.,24.0,0.,24.0
1979-03-03 10:25:33.390 ,2,1,0.,24.0,0.,24.0,0.,24.0,0.,24.0
1979-03-03 10:25:57.390 ,3,1,0.,24.0,0.,24.0,0.,24.0,0.,24.0
1979-03-03 10:26:21.390 ,4,1,0.,24.0,0.,24.0,0.,24.0,0.,24.0
1979-03-03 10:26:45.390 ,5,1,0.,24.0,0.,24.0,0.,24.0,0.,24.0
1979-03-03 10:27:09.390 ,6,1,0.,24.0,0.,24.0,0.,24.0,0.,24.0
1979-03-03 10:27:33.390 ,7,1,0.,24.0,0.,24.0,0.,24.0,0.,24.0
1979-03-03 10:27:57.390 ,7,1,0.,24.0,0.,24.0,0.,24.0,0.,24.0
1979-03-03 10:28:21.390 ,6,1,0.,24.0,0.,24.0,0.,24.0,0.,24.0
1979-03-03 10:28:45.390 ,5,1,0.,24.0,0.,24.0,0.,24.0,0.,24.0
1979-03-03 10:29:09.390 ,4,1,0.,24.0,0.,24.0,0.,24.0,0.,24.0
1979-03-03 10:29:33.390 ,3,1,0.,24.0,0.,24.0,0.,24.0,0.,24.0
1979-03-03 10:29:57.390 ,2,1,0.,24.0,0.,24.0,0.,24.0,0.,24.0
1979-03-03 10:30:21.390 ,1,1,0.,24.0,0.,24.0,0.,24.0,0.,24.0
1979-03-03 10:30:45.390 ,0,1,0.,24.0,0.,24.0,0.,24.0,0.,24.0
1979-03-03 10:31:09.390 ,0,1,0.,24.0,0.,24.0,0.,24.0,0.,24.0
1979-03-03 10:31:33.390 ,1,1,0.,24.0,0.,24.0,0.,24.0,0.,24.0
1979-03-03 10:31:57.390 ,2,1,0.,24.0,0.,24.0,0.,24.0,0.,24.0
1979-03-03 10:32:21.390 ,3,1,0.,24.0,0.,24.0,0.,24.0,0.,24.0
1979-03-03 10:32:45.390 ,4,1,0.,24.0,0.,24.0,0.,24.0,0.,24.0
1979-03-03 10:33:09.390 ,5,1,0.,24.0,0.,24.0,0.,24.0,0.,24.0
1979-03-03 10:33:33.390 ,6,1,0.,24.0,0.,24.0,0.,24.0,0.,24.0
1979-03-03 10:33:57.390 ,7,1,0.,24.0,0.,24.0,0.,24.0,0.,24.0
1979-03-03 10:34:21.390 ,7,1,0.,24.0,0.,24.0,0.,24.0,0.,24.0
1979-03-03 10:34:45.390 ,6,1,0.,24.0,0.,24.0,0.,24.0,0.,24.0
1979-03-03 10:35:09.390 ,5,1,0.,24.0,0.,24.0,0.,24.0,0.,24.0
1979-03-03 10:35:33.390 ,4,1,0.,24.0,0.,24.0,0.,24.0,0.,24.0
1979-03-03 10:35:57.390 ,3,1,0.,24.0,0.,24.0,0.,24.0,0.,24.0
1979-03-03 10:36:21.390 ,2,1,0.,24.0,0.,24.0,0.,24.0,0.,24.0
1979-03-03 10:36:45.390 ,1,1,0.,24.0,0.,24.0,0.,24.0,0.,24.0
1979-03-03 10:37:09.390 ,0,1,0.,24.0,0.,24.0,0.,24.0,0.,24.0
1979-03-03 10:37:33.390 ,0,1,0.,24.0,0.,24.0,0.,24.0,0.,24.0
1979-03-03 10:37:57.390 ,1,1,0.,24.0,0.,24.0,0.,24.0,0.,24.0
1979-03-03 10:38:21.390 ,2,1,0.,24.0,0.,24.0,0.,24.0,0.,24.0
1979-03-03 10:38:45.390 ,3,1,0.,24.0,0.,24.0,0.,24.0,0.,24.0
1979-03-03 10:39:09.390 ,4,1,0.,24.0,0.,24.0,0.,24.0,0.,24.0
1979-03-03 10:39:33.390 ,5,1,0.,24.0,0.,24.0,0.,24.0,0.,24.0
1979-03-03 10:39:57.390 ,6,1,0.,24.0,0.,24.0,0.,24.0,0.,24.0
1979-03-03 10:40:21.390 ,7,1,0.,24.0,0.,24.0,0.,24.0,0.,24.0
1979-03-03 10:40:45.390 ,7,1,0.,24.0,0.,24.0,0.,24.0,0.,24.0
1979-03-03 10:41:09.390 ,6,1,0.,24.0,0.,24.0,0.,24.0,0.,24.0
1979-03-03 10:41:33.390 ,5,1,0.,24.0,0.,24.0,0.,24.0,0.,24.0
1979-03-03 10:41:57.390 ,4,1,0.,24.0,0.,24.0,0.,24.0,0.,24.0
1979-03-03 10:42:21.390 ,3,1,0.,24.0,0.,24.0,0.,24.0,0.,24.0
1979-03-03 10:42:45.390 ,2,1,0.,24.0,0.,24.0,0.,24.0,0.,24.0
1979-03-03 10:43:09.390 ,1,1,0.,24.0,0.,24.0,0.,24.0,0.,24.0
1979-03-03 10:43:33.390 ,0,1,0.,24.0,0.,24.0,0.,24.0,0.,24.0
1979-03-03 10:43:57.390 ,0,1,0.,24.0,0.,24.0,0.,24.0,0.,24.0
1979-03-03 10:44:21.390 ,1,1,0.,24.0,0.,24.0,0.,24.0,0.,24.0
1979-03-03 10:44:45.390 ,2,1,0.,24.0,0.,24.0,0.,24.0,0.,24.0
1979-03-03 10:45:09.390 ,3,1,0.,24.0,0.,24.0,0.,24.0,0.,24.0
1979-03-03 10:45:33.390 ,4,1,0.,24.0,0.,24.0,0.,24.0,0.,24.0
1979-03-03 10:45:57.390 ,5,1,0.,24.0,0.,24.0,0.,24.0,0.,24.0
1979-03-03 10:46:21.390 ,6,1,0.,24.0,0.,24.0,0.,24.0,0.,24.0
1979-03-03 10:46:45.390 ,7,1,0.,24.0,0.,24.0,0.,24.0,0.,24.0
1979-03-03 10:47:09.390 ,7,1,0.,24.0,0.,24.0,0.,24.0,0.,24.0
1979-03-03 10:47:33.390 ,6,1,0.,24.0,0.,24.0,0.,24.0,0.,24.0
1979-03-03 10:47:57.390 ,5,1,0.,24.0,0.,24.0,0.,24.0,0.,24.0
1979-03-03 10:48:21.390 ,4,1,0.,24.0,0.,24.0,0.,24.0,0.,24.0
1979-03-03 10:48:45.390 ,3,1,0.,24.0,0.,24.0,0.,24.0,0.,24.0
1979-03-03 10:49:09.390 ,2,1,0.,24.0,0.,24.0,0.,24.0,0.,24.0
1979-03-03 10:49:33.390 ,1,1,0.,24.0,0.,24.0,0.,24.0,0.,24.0
1979-03-03 10:49:57.390 ,0,1,0.,24.0,0.,24.0,0.,24.0,0.,24.0
1979-03-03 10:50:21.390 ,0,1,0.,24.0,0.,24.0,0.,24.0,0.,24.0
1979-03-03 10:50:45.390 ,1,1,0.,24.0,0.,24.0,0.,24.0,0.,24.0
1979-03-03 10:51:09.390 ,2,1,0.,24.0,0.,24.0,0.,24.0,0.,24.0
1979-03-03 10:51:33.390 ,3,1,0.,24.0,0.,24.0,0.,24.0,0.,24.0
1979-03-03 10:51:57.390 ,4,1,0.,24.0,0.,24.0,0.,24.0,0.,24.0
1979-03-03 10:52:21.390 ,5,1,0.,24.0,0.,24.0,0.,24.0,0.,24.0
1979-03-03 10:52:45.390 ,0,0,0.,24.0,0.,24.0,0.,24.0,0.,24.0
1979-03-03 10:53:09.390 ,7,1,0.,24.0,0.,24.0,0.,24.0,0.,24.0
1979-03-03 10:53:33.390 ,7,1,0.,24.0,0.,24.0,0.,24.0,0.,24.0
1979-03-03 10:53:57.390 ,6,1,0.,24.0,0.,24.0,0.,24.0,0.,24.0
1979-03-03 10:54:21.390 ,5,1,0.,24.0,0.,24.0,0.,24.0,0.,24.0
1979-03-03 10:54:45.390 ,4,1,0.,24.0,0.,24.0,0.,24.0,0.,24.0
1979-03-03 10:55:09.390 ,3,1,0.,24.0,0.,24.0,0.,24.0,0.,24.0
1979-03-03 10:55:33.390 ,2,1,0.,24.0,0.,24.0,0.,24.0,0.,24.0
1979-03-03 10:55:57.390 ,1,1,0.,24.0,0.,24.0,0.,24.0,0.,24.0
1979-03-03 10:56:21.390 ,0,1,0.,24.0,0.,24.0,0.,24.0,0.,24.0
1979-03-03 10:56:45.390 ,0,1,0.,24.0,0.,24.0,0.,24.0,0.,24.0
1979-03-03 10:57:09.390 ,1,1,0.,24.0,0.,24.0,0.,24.0,0.,24.0
1979-03-03 10:57:33.390 ,2,1,0.,24.0,0.,24.0,0.,24.0,0.,24.0
1979-03-03 10:57:57.390 ,3,1,0.,24.0,0.,24.0,0.,24.0,0.,24.0
1979-03-03 10:58:21.390 ,4,1,0.,24.0,0.,24.0,0.,24.0,0.,24.0
1979-03-03 10:58:45.390 ,5,1,0.,24.0,0.,24.0,0.,24.0,0.,24.0
1979-03-03 10:59:09.390 ,6,1,0.,24.0,0.,24.0,0.,24.0,0.,24.0
1979-03-03 10:59:33.390 ,7,1,0.,24.0,0.,24.0,0.,24.0,0.,24.0
1979-03-03 10:59:57.390 ,7,1,0.,24.0,0.,24.0,0.,24.0,0.,24.0
1979-03-03 11:00:21.390 ,6,1,0.,24.0,0.,24.0,0.,24.0,0.,24.0
1979-03-03 11:00:45.390 ,5,1,0.,24.0,0.,24.0,0.,24.0,0.,24.0
1979-03-03 11:01:09.390 ,4,1,0.,24.0,0.,24.0,0.,24.0,0.,24.0
1979-03-03 11:01:33.390 ,3,1,0.,24.0,0.,24.0,0.,24.0,0.,24.0
1979-03-03 11:01:57.390 ,2,1,0.,24.0,0.,24.0,0.,24.0,0.,24.0
1979-03-03 11:02:21.390 ,1,1,0.,24.0,0.,24.0,0.,24.0,0.,24.0
1979-03-03 11:02:45.390 ,0,1,0.,24.0,0.,24.0,0.,24.0,0.,24.0
1979-03-03 11:03:09.390 ,0,1,0.,24.0,0.,24.0,0.,24.0,0.,24.0
1979-03-03 11:03:33.390 ,1,1,0.,24.0,0.,24.0,0.,24.0,0.,24.0
1979-03-03 11:03:57.390 ,2,1,0.,24.0,0.,24.0,0.,24.0,0.,24.0
1979-03-03 11:04:21.390 ,3,1,0.,24.0,0.,24.0,0.,24.0,0.,24.0
1979-03-03 11:04:45.390 ,4,1,0.,24.0,0.,24.0,0.,24.0,0.,24.0
1979-03-03 11:05:09.390 ,5,1,0.,24.0,0.,24.0,0.,24.0,0.,24.0
1979-03-03 11:05:33.390 ,6,1,0.,24.0,0.,24.0,0.,24.0,0.,24.0
1979-03-03 11:05:57.390 ,7,1,0.,24.0,0.,24.0,0.,24.0,0.,24.0
1979-03-03 11:06:21.390 ,7,1,0.,24.0,0.,24.0,0.,24.0,0.,24.0
1979-03-03 11:06:45.390 ,6,1,0.,24.0,0.,24.0,0.,24.0,0.,24.0
1979-03-03 11:07:09.390 ,5,1,0.,24.0,0.,24.0,0.,24.0,0.,24.0
1979-03-03 11:07:33.390 ,0,0,0.,24.0,0.,24.0,0.,24.0,0.,24.0
